Terminal Aerodrome Forecast
Issued by NWS Grand Forks, ND

Home | Current Version | Previous Version | Text Only | Print | Product List | Glossary On
Versions: 1 2 3 4 5 6 7 8 9 10 11 12 13
000
FTUS43 KFGF 241100
TAFFAR
TAF
KFAR 241139Z 2412/2512 18007KT P6SM BKN250
     FM241800 27015G22KT P6SM SCT100
     FM242000 28024G30KT P6SM SCT200=

USA.gov is the U.S. government's official web portal to all federal, state and local government web resources and services.